Weather in Thun

Switzerland     46°45′25″N   7°37′40″E
temp.,
°C
wind,
m/s
gust,
m/s
humid.,
%
clouds,
%
prec.,
mm/h
press.,
hPa
HPBL,
m
14 april, wed
wed1423:00−4ese22745 0.0 103028
02:00−5se22711 0.0 102930
05:00−7se22732 0.0 102928
08:00−5ese11580 0.0 1028102
11:00+2n22487 0.0 10251092
14:00+4nne224236 0.0 10231676
17:00+4nne324283 0.0 10221835
20:00−1n227259 0.1 102424
15 april, thu
thu1523:00−4e119199 0.1 102730
02:00−5se119564 0.2 102720
05:00−5se118960 0.0 102724
08:00−4ese117257 0.0 1026134
11:00+2nne235498 0.1 10241477
14:00+4ne324590 0.2 10221983
17:00+4ne3347100 0.2 10201673
20:00−1ene2275100 0.3 102250
16 april, fri
fri1623:00−3ese2180100 0.0 102332
02:00−3se1171100 0.0 102235
05:00−4ese116985 0.0 102226
08:00−3ene01603 0.0 1021114
11:00+3n225013 0.0 10191044
14:00+6nne324997 0.1 10171569
17:00+5ne245598 0.3 10171331
20:00+1ene237544 0.4 101988
17 april, sat
sat1723:00−2ese229129 0.0 102220
02:00−4ese22875 0.0 102126
05:00−5ese118013 0.0 102121
08:00−2ene116742 0.0 1021170
11:00+3n226475 0.0 1018893
14:00+4n326292 0.0 10171116
17:00+3nne2371100 0.1 1018851
20:000nne129387 0.3 1020145
18 april, sun
sun1823:000n1298100 0.4 1020117
02:00−1nne129988 0.8 1020123
05:00−1nne119997 0.4 102086
08:00−1ne0194100 1.1 1021229
11:00+1n229098 0.8 1020414
14:00+2nnw229295 1.1 1020422
17:00+1nnw129598 0.3 1021344
20:00+1ne019861 0.4 1022146